カタログに戻る

DELTA 1 DEB

運用中LEO
NORAD 7184·DEBRIS·🇺🇸 United States

打ち上げ Nov 6, 1973 から Vandenberg Space Force Base

Loading…

次のパス (今後24時間)

TLE

最新Source: Space-Track

元期: Sep 14, 2026, 11:32 UTC

1 07184U 73086EV  26257.48077328  .00000710  00000-0  21525-2 0  9990
2 07184 102.3035 251.7534 0192505  13.0364 140.7937 13.05428019494980

AllMySatでDELTA 1 DEBをリアルタイム追跡

Download on the App Store